Groton, CT

4:35 PM EDT on May 29, 2017 (GMT -0400)
Groton-New London

Weather History for KGON - April, 2014

Change the Weather History Date:

Tuesday, April 29, 2014

  Actual Average Record
Temperature  
Mean Temperature 46 °F -  
Max Temperature 52 °F 61 °F 81 °F (2017)
Min Temperature 42 °F 40 °F 30 °F (2001)
Degree Days  
Heating Degree Days 18    
Moisture  
Dew Point 37 °F    
Average Humidity 69    
Maximum Humidity 86    
Minimum Humidity 54    
Precipitation  
Precipitation 0.00 in - - ()
Sea Level Pressure  
Sea Level Pressure 30.36 in    
Wind  
Wind Speed 12 mph (ENE)    
Max Wind Speed 18 mph    
Max Gust Speed 28 mph    
Visibility 9 miles    
Events Rain    
Averages and records for this station are not official NWS values.
T = Trace of Precipitation, MM = Missing Value Source: NWS Daily Summary

Daily Weather History Graph

Daily Weather History Graph

Search for Another Location

Airport or City:

Trip Planner

Search our weather history database for the weather conditions in past years. The results will help you decide how hot, cold, wet, or windy it might be!

Date:

Astronomy

Apr. 29, 2014 Rise Set
Actual Time 5:48 AM EDT 7:43 PM EDT
Civil Twilight 5:18 AM EDT 8:13 PM EDT
Nautical Twilight 4:42 AM EDT 8:49 PM EDT
Astronomical Twilight 4:02 AM EDT 9:29 PM EDT
Moon 6:04 AM EDT 8:20 PM EDT
Length of Visible Light 14h 54m
Length of Day
13h 55m
New Moon, 0% of the Moon is Illuminated
Apr 29
New Moon
May 6
First Quarter
May 14
Full
May 21
Last Quarter
May 28
New

Hourly Weather History & Observations

Time (EDT) Temp. Windchill Dew Point Humidity Pressure Visibility Wind Dir Wind Speed Gust Speed Precip Events Conditions
12:31 AM 48.2 °F - 39.2 °F 71% 30.18 in 10.0 mi ENE 6.9 mph - N/A   Overcast
12:56 AM 48.0 °F - 39.0 °F 71% 30.19 in 10.0 mi ENE 6.9 mph - N/A   Overcast
1:31 AM 48.2 °F - 39.2 °F 71% 30.20 in 10.0 mi East 4.6 mph - N/A   Overcast
1:48 AM 48.2 °F - 39.2 °F 71% 30.19 in 10.0 mi ENE 10.4 mph 16.1 mph N/A   Overcast
1:56 AM 48.0 °F - 39.0 °F 71% 30.19 in 10.0 mi NE 16.1 mph 21.9 mph N/A   Overcast
2:56 AM 46.9 °F - 37.0 °F 68% 30.21 in 10.0 mi NE 17.3 mph - N/A   Overcast
3:56 AM 46.0 °F 41.4 °F 37.0 °F 71% 30.25 in 10.0 mi NE 9.2 mph - N/A   Overcast
4:56 AM 44.6 °F 36.9 °F 37.4 °F 76% 30.26 in 10.0 mi NE 18.4 mph - N/A   Overcast
5:56 AM 45.0 °F 38.5 °F 36.0 °F 71% 30.28 in 10.0 mi ENE 13.8 mph 21.9 mph N/A   Overcast
6:56 AM 44.1 °F 39.0 °F 37.9 °F 79% 30.32 in 8.0 mi NE 9.2 mph - N/A   Overcast
7:56 AM 44.6 °F 38.8 °F 37.4 °F 76% 30.34 in 7.0 mi ENE 11.5 mph - N/A Rain Light Rain
8:56 AM 45.0 °F 38.9 °F 35.1 °F 68% 30.35 in 9.0 mi East 12.7 mph 21.9 mph 0.00 in   Overcast
9:56 AM 46.0 °F 39.0 °F 36.0 °F 68% 30.39 in 9.0 mi ENE 17.3 mph - N/A   Overcast
10:56 AM 46.9 °F - 36.0 °F 66% 30.39 in 9.0 mi ENE 16.1 mph - N/A   Overcast
11:56 AM 46.9 °F - 36.0 °F 66% 30.41 in 9.0 mi ENE 15.0 mph 21.9 mph N/A   Overcast
12:56 PM 48.9 °F - 36.0 °F 61% 30.40 in 9.0 mi ENE 16.1 mph - N/A   Overcast
1:56 PM 48.9 °F - 36.0 °F 61% 30.41 in 9.0 mi ENE 11.5 mph - N/A   Overcast
2:44 PM 50.0 °F - 35.6 °F 58% 30.41 in 9.0 mi East 10.4 mph - N/A   Overcast
2:56 PM 50.0 °F - 36.0 °F 59% 30.41 in 9.0 mi NE 15.0 mph - N/A   Overcast
3:56 PM 51.1 °F - 35.1 °F 54% 30.41 in 9.0 mi ENE 15.0 mph - N/A   Mostly Cloudy
4:56 PM 48.9 °F - 34.0 °F 56% 30.42 in 8.0 mi East 13.8 mph 20.7 mph N/A   Mostly Cloudy
5:56 PM 46.9 °F - 35.1 °F 63% 30.42 in 8.0 mi ENE 17.3 mph 26.5 mph N/A   Overcast
6:09 PM 46.4 °F 40.1 °F 35.6 °F 66% 30.43 in 8.0 mi East 15.0 mph - N/A   Overcast
6:56 PM 45.0 °F 38.2 °F 37.0 °F 74% 30.43 in 7.0 mi NE 15.0 mph - 0.00 in Rain Light Rain
7:56 PM 44.1 °F 38.1 °F 36.0 °F 73% 30.46 in 10.0 mi East 11.5 mph - 0.00 in   Overcast
8:56 PM 44.1 °F 38.1 °F 36.0 °F 73% 30.46 in 9.0 mi East 11.5 mph - N/A   Overcast
9:56 PM 43.0 °F 36.0 °F 39.0 °F 86% 30.48 in 8.0 mi East 13.8 mph 24.2 mph 0.00 in Rain Light Rain
10:51 PM 42.8 °F 35.4 °F 35.6 °F 76% 30.47 in 9.0 mi East 15.0 mph 27.6 mph 0.00 in   Overcast
10:56 PM 43.0 °F 36.0 °F 36.0 °F 76% 30.47 in 9.0 mi East 13.8 mph - 0.00 in   Overcast
11:56 PM 43.0 °F 37.2 °F 36.0 °F 76% 30.48 in 9.0 mi East 10.4 mph 20.7 mph 0.00 in   Overcast